H1 CPF  2 gal 2024 06 06 09 158 1 galileo215
H2 1707901 7215 43055 2024 06 06 00 14 42 2024 06 11 00 14 42 900 1 1 0 0 0 1
H9                                                                                
10 0 60468  19782.000000  0     -16600147.713     -10613306.761     -22091308.534 
10 0 60468  20682.000000  0     -16918279.517     -12525238.071     -20811938.852 
10 0 60468  21582.000000  0     -17340022.988     -14286525.787     -19273770.513 
10 0 60468  22482.000000  0     -17840410.389     -15870844.981     -17495930.167 
10 0 60468  23382.000000  0     -18390699.124     -17256841.381     -15500524.365 
10 0 60468  24282.000000  0     -18959299.439     -18428740.625     -13312365.110 
10 0 60468  25182.000000  0     -19512794.035     -19376784.203     -10958661.699 
10 0 60468  26082.000000  0     -20017017.626     -20097478.508      -8468682.630 
10 0 60468  26982.000000  0     -20438162.543     -20593649.267      -5873391.764 
10 0 60468  27882.000000  0     -20743875.691     -20874299.724      -3205063.251 
10 0 60468  28782.000000  0     -20904312.369     -20954277.083       -496880.039 
10 0 60468  29682.000000  0     -20893113.854     -20853757.745       2217479.026 
10 0 60468  30582.000000  0     -20688277.984     -20597567.569       4904258.311 
10 0 60468  31482.000000  0     -20272895.371     -20214358.546       7530045.468 
10 0 60468  32382.000000  0     -19635728.071     -19735667.805      10062187.182 
10 0 60468  33282.000000  0     -18771612.484     -19194888.542      12469195.379 
10 0 60468  34182.000000  0     -17681673.784     -18626185.222      14721138.814 
10 0 60468  35082.000000  0     -16373345.096     -18063387.149      16790015.145 
10 0 60468  35982.000000  0     -14860190.737     -17538895.136      18650098.891 
10 0 60468  36882.000000  0     -13161539.003     -17082635.605      20278260.941 
10 0 60468  37782.000000  0     -11301935.916     -16721094.911      21654255.717 
10 0 60468  38682.000000  0      -9310436.945     -16476464.182      22760972.452 
10 0 60468  39582.000000  0      -7219758.764     -16365921.452      23584647.530 
10 0 60468  40482.000000  0      -5065317.474     -16401073.601      24115035.319 
10 0 60468  41382.000000  0      -2884183.234     -16587575.585      24345535.405 
10 0 60468  42282.000000  0       -713983.869     -16924938.885      24273274.713 
10 0 60468  43182.000000  0       1408208.431     -17406535.227      23899143.485 
10 0 60468  44082.000000  0       3446972.634     -18019795.481      23227784.689 
10 0 60468  44982.000000  0       5369582.512     -18746597.580      22267536.937 
10 0 60468  45882.000000  0       7146965.897     -19563831.377      21030331.597 
10 0 60468  46782.000000  0       8754549.653     -20444122.808      19531545.285 
10 0 60468  47682.000000  0      10172964.044     -21356694.760      17789809.506 
10 0 60468  48582.000000  0      11388584.509     -22268337.700      15826779.725 
10 0 60468  49482.000000  0      12393893.987     -23144459.709      13666866.654 
10 0 60468  50382.000000  0      13187654.465     -23950182.998      11336933.045 
10 0 60468  51282.000000  0      13774882.468     -24651452.524       8865959.705 
10 0 60468  52182.000000  0      14166629.291     -25216121.891       6284684.874 
10 0 60468  53082.000000  0      14379572.944     -25614982.425       3625221.459 
10 0 60468  53982.000000  0      14435434.693     -25822703.049        920656.924 
10 0 60468  54882.000000  0      14360238.582     -25818651.392      -1795359.131 
10 0 60468  55782.000000  0      14183437.303     -25587570.272      -4489034.491 
10 0 60468  56682.000000  0      13936931.951     -25120088.254      -7126855.630 
10 0 60468  57582.000000  0      13654016.566     -24413048.185      -9676005.489 
10 0 60468  58482.000000  0      13368280.720     -23469643.354     -12104772.420 
10 0 60468  59382.000000  0      13112504.706     -22299356.965     -14382945.165 
10 0 60468  60282.000000  0      12917582.108     -20917706.800     -16482188.893 
10 0 60468  61182.000000  0      12811503.655     -19345803.050     -18376397.611 
10 0 60468  62082.000000  0      12818434.290     -17609733.181     -20042018.572 
10 0 60468  62982.000000  0      12957912.457     -15739793.066     -21458344.665 
10 0 60468  63882.000000  0      13244196.740     -13769588.446     -22607771.236 
10 0 60468  64782.000000  0      13685780.352     -11735034.794     -23476014.192 
10 0 60468  65682.000000  0      14285088.697      -9673286.826     -24052286.770 
10 0 60468  66582.000000  0      15038369.500      -7621631.047     -24329432.850 
10 0 60468  67482.000000  0      15935778.959      -5616375.875     -24304015.236 
10 0 60468  68382.000000  0      16961661.255      -3691773.918     -23976357.845 
10 0 60468  69282.000000  0      18095012.713      -1879009.962     -23350541.333 
10 0 60468  70182.000000  0      19310116.134       -205286.179     -22434352.224 
10 0 60468  71082.000000  0      20577325.512       1306966.988     -21239186.152 
10 0 60468  71982.000000  0      21863976.638       2640729.733     -19779906.400 
10 0 60468  72882.000000  0      23135395.154       3784861.724     -18074659.446 
10 0 60468  73782.000000  0      24355970.552       4734386.325     -16144649.741 
10 0 60468  74682.000000  0      25490262.546       5490581.428     -14013876.471 
10 0 60468  75582.000000  0      26504105.200       6060874.137     -11708835.512 
10 0 60468  76482.000000  0      27365674.234       6458542.718      -9258190.240 
10 0 60468  77382.000000  0      28046484.072       6702235.238      -6692415.257 
10 0 60468  78282.000000  0      28522283.377       6815320.067      -4043417.458 
10 0 60468  79182.000000  0      28773820.967       6825088.718      -1344139.148 
10 0 60468  80082.000000  0      28787458.080       6761836.106       1371851.816 
10 0 60468  80982.000000  0      28555607.753       6657847.188       4070779.729 
10 0 60468  81882.000000  0      28076987.509       6546321.870       6719081.345 
10 0 60468  82782.000000  0      27356677.413       6460272.016       9283823.502 
10 0 60468  83682.000000  0      26405981.637       6431425.263      11733112.827 
10 0 60468  84582.000000  0      25242097.880       6489170.128      14036492.394 
10 0 60468  85482.000000  0      23887604.977       6659575.571      16165320.373 
10 0 60468  86382.000000  0      22369784.745       6964515.856      18093125.968 
10 0 60469    882.000000  0      20719799.280       7420928.213      19795938.231 
10 0 60469   1782.000000  0      18971749.449       8040226.638      21252583.698 
10 0 60469   2682.000000  0      17161643.992       8827890.273      22444949.211 
10 0 60469   3582.000000  0      15326311.457       9783239.336      23358206.698 
10 0 60469   4482.000000  0      13502288.917      10899405.693      23980997.197 
10 0 60469   5382.000000  0      11724722.155      12163499.088      24305571.880 
10 0 60469   6282.000000  0      10026311.607      13556963.939      24327888.381 
10 0 60469   7182.000000  0       8436336.928      15056115.645      24047661.247 
10 0 60469   8082.000000  0       6979790.569      16632839.744      23468365.888 
10 0 60469   8982.000000  0       5676647.376      18255432.192      22597195.964 
10 0 60469   9882.000000  0       4541292.939      19889554.580      21444974.697 
10 0 60469  10782.000000  0       3582128.519      21499274.532      20026021.131 
10 0 60469  11682.000000  0       2801364.822      23048158.818      18357972.950 
10 0 60469  12582.000000  0       2195011.027      24500385.052      16461567.959 
10 0 60469  13482.000000  0       1753059.351      25821837.219      14360386.863 
10 0 60469  14382.000000  0       1459859.309      26981150.757      12080560.485 
10 0 60469  15282.000000  0       1294669.887      27950674.453       9650445.004 
10 0 60469  16182.000000  0       1232372.245      28707318.995       7100269.219 
10 0 60469  17082.000000  0       1244320.513      29233265.554       4461758.236 
10 0 60469  17982.000000  0       1299303.897      29516512.149       1767738.275 
10 0 60469  18882.000000  0       1364589.777      29551240.615       -948272.430 
10 0 60469  19782.000000  0       1407014.955      29337992.648      -3652481.478 
10 0 60469  20682.000000  0       1394090.642      28883649.396      -6311243.619 
10 0 60469  21582.000000  0       1295086.370      28201215.230      -8891480.194 
10 0 60469  22482.000000  0       1082058.674      27309412.520     -11361091.420 
10 0 60469  23382.000000  0        730792.126      26232100.149     -13689356.293 
10 0 60469  24282.000000  0        221623.068      24997534.055     -15847315.091 
10 0 60469  25182.000000  0       -459879.874      23637493.028     -17808129.690 
10 0 60469  26082.000000  0      -1322399.954      22186297.212     -19547417.208 
10 0 60469  26982.000000  0      -2368537.365      20679750.089     -21043552.842 
10 0 60469  27882.000000  0      -3594665.780      19154037.110     -22277938.190 
10 0 60469  28782.000000  0      -4990984.909      17644615.435     -23235231.783 
10 0 60469  29682.000000  0      -6541767.507      16185129.516     -23903539.029 
10 0 60469  30582.000000  0      -8225793.157      14806386.392     -24274559.303 
10 0 60469  31482.000000  0     -10016955.338      13535422.675     -24343688.412 
10 0 60469  32382.000000  0     -11885022.879      12394692.337     -24110075.238 
10 0 60469  33282.000000  0     -13796532.074      11401400.568     -23576631.889 
10 0 60469  34182.000000  0     -15715781.670      10567004.462     -22749997.263 
10 0 60469  35082.000000  0     -17605899.733       9896896.021     -21640454.472 
10 0 60469  35982.000000  0     -19429949.125       9390277.301     -20261803.129 
10 0 60469  36882.000000  0     -21152037.144       9040231.508     -18631188.059 
10 0 60469  37782.000000  0     -22738394.693       8833987.742     -16768886.483 
99